When you browse on this site, cookies collect data to enhance your experience and personalize the content and advertising you see.
Visit our Privacy Policy to learn more. By continuing to use the site, you agree to this use of cookies and data.
  • în România
  • Lista ţărilor
  • Pe 7 zile
  • Temperatura apei
  • Meteo pe hartă
  • Widget-uri
  • user-avatar
    Intrare

    Meteo pe oră la Shkoder

    Astăzi, 7 Iunie, Duminică

    Timp Temperatura Precipitaţii Vânt Presiune Umiditate
    00:00 +16°C° 0 mm 1 m/s 734 mmHg 90%
    01:00 +16°C° 0 mm 1 m/s 734 mmHg 89%
    02:00 +15°C° 0 mm 1 m/s 734 mmHg 90%
    03:00 +15°C° 0 mm 1 m/s 734 mmHg 90%
    04:00 +15°C° 0 mm 1 m/s 734 mmHg 91%
    05:00 +18°C° 0 mm 1 m/s 735 mmHg 88%
    06:00 +19°C° 0 mm 1 m/s 735 mmHg 85%
    07:00 +20°C° 0 mm 1 m/s 735 mmHg 82%
    08:00 +21°C° 0 mm 1 m/s 735 mmHg 78%
    09:00 +21°C° 0 mm 2 m/s 735 mmHg 74%
    10:00 +23°C° 0 mm 2 m/s 735 mmHg 70%
    11:00 +24°C° 0 mm 2 m/s 735 mmHg 68%
    12:00 +24°C° 0 mm 3 m/s 735 mmHg 67%
    13:00 +24°C° 0 mm 3 m/s 735 mmHg 65%
    14:00 +24°C° 0 mm 3 m/s 735 mmHg 66%
    15:00 +24°C° 0 mm 3 m/s 735 mmHg 67%
    16:00 +24°C° 0 mm 3 m/s 735 mmHg 68%
    17:00 +21°C° 0 mm 2 m/s 735 mmHg 74%
    18:00 +20°C° 0 mm 2 m/s 735 mmHg 80%
    19:00 +20°C° 0 mm 1 m/s 735 mmHg 87%
    20:00 +19°C° 0 mm 1 m/s 735 mmHg 87%
    21:00 +18°C° 0 mm 1 m/s 736 mmHg 88%
    22:00 +18°C° 0 mm 1 m/s 736 mmHg 88%
    23:00 +16°C° 0 mm 1 m/s 736 mmHg 88%

    Mâine, 8 Iunie, Luni

    Timp Temperatura Precipitaţii Vânt Presiune Umiditate
    00:00 +16°C° 0 mm 1 m/s 736 mmHg 88%
    01:00 +16°C° 0 mm 1 m/s 735 mmHg 87%
    02:00 +16°C° 0 mm 1 m/s 735 mmHg 86%
    03:00 +16°C° 0 mm 1 m/s 735 mmHg 85%
    04:00 +16°C° 0 mm 1 m/s 735 mmHg 84%
    05:00 +18°C° 0 mm 1 m/s 735 mmHg 83%
    06:00 +19°C° 0 mm 1 m/s 735 mmHg 81%
    07:00 +20°C° 0 mm 2 m/s 735 mmHg 79%
    08:00 +21°C° 0.1 mm 2 m/s 736 mmHg 77%
    09:00 +23°C° 0.1 mm 2 m/s 736 mmHg 74%
    10:00 +24°C° 0.1 mm 2 m/s 736 mmHg 71%
    11:00 +24°C° 0.5 mm 2 m/s 735 mmHg 69%
    12:00 +24°C° 0.5 mm 2 m/s 735 mmHg 68%
    13:00 +25°C° 0.5 mm 2 m/s 735 mmHg 66%
    14:00 +25°C° 0.3 mm 2 m/s 735 mmHg 66%
    15:00 +25°C° 0.3 mm 2 m/s 735 mmHg 65%
    16:00 +25°C° 0.3 mm 2 m/s 735 mmHg 65%
    17:00 +23°C° 0.1 mm 2 m/s 735 mmHg 70%
    18:00 +22°C° 0.1 mm 1 m/s 735 mmHg 75%
    19:00 +20°C° 0.1 mm 1 m/s 735 mmHg 80%
    20:00 +20°C° 0 mm 1 m/s 735 mmHg 80%
    21:00 +19°C° 0 mm 1 m/s 735 mmHg 79%
    22:00 +18°C° 0 mm 1 m/s 736 mmHg 79%
    23:00 +18°C° 0 mm 1 m/s 736 mmHg 79%

    Poimâine, 9 Iunie, Marţi

    Timp Temperatura Precipitaţii Vânt Presiune Umiditate
    00:00 +18°C° 0 mm 1 m/s 735 mmHg 78%
    01:00 +18°C° 0 mm 1 m/s 735 mmHg 78%
    02:00 +18°C° 0 mm 1 m/s 735 mmHg 78%
    03:00 +18°C° 0 mm 1 m/s 735 mmHg 78%
    04:00 +18°C° 0 mm 1 m/s 735 mmHg 78%
    05:00 +19°C° 0 mm 1 m/s 735 mmHg 74%
    06:00 +21°C° 0 mm 1 m/s 735 mmHg 70%
    07:00 +23°C° 0 mm 1 m/s 735 mmHg 67%
    08:00 +24°C° 0.2 mm 1 m/s 735 mmHg 63%
    09:00 +25°C° 0.2 mm 1 m/s 735 mmHg 60%
    10:00 +26°C° 0.2 mm 1 m/s 735 mmHg 57%
    11:00 +26°C° 0.5 mm 2 m/s 735 mmHg 57%
    12:00 +27°C° 0.5 mm 2 m/s 735 mmHg 58%
    13:00 +27°C° 0.5 mm 3 m/s 735 mmHg 58%
    14:00 +26°C° 0.3 mm 3 m/s 735 mmHg 60%
    15:00 +26°C° 0.3 mm 2 m/s 735 mmHg 62%
    16:00 +26°C° 0.3 mm 2 m/s 735 mmHg 64%
    17:00 +24°C° 0.1 mm 2 m/s 735 mmHg 69%
    18:00 +22°C° 0.1 mm 1 m/s 735 mmHg 75%
    19:00 +21°C° 0.1 mm 1 m/s 735 mmHg 81%
    20:00 +20°C° 0 mm 1 m/s 736 mmHg 83%
    21:00 +19°C° 0 mm 1 m/s 736 mmHg 84%
    22:00 +17°C° 0 mm 0 m/s 737 mmHg 85%
    23:00 +18°C° 0 mm 1 m/s 737 mmHg 85%

    10 Iunie, Miercuri

    Timp Temperatura Precipitaţii Vânt Presiune Umiditate
    00:00 +18°C° 0 mm 1 m/s 737 mmHg 86%
    01:00 +18°C° 0 mm 1 m/s 736 mmHg 86%
    02:00 +18°C° 0.1 mm 1 m/s 736 mmHg 86%
    03:00 +18°C° 0.1 mm 1 m/s 736 mmHg 86%
    04:00 +16°C° 0.1 mm 1 m/s 736 mmHg 85%
    05:00 +19°C° 0.1 mm 1 m/s 736 mmHg 82%
    06:00 +21°C° 0.1 mm 1 m/s 736 mmHg 78%
    07:00 +22°C° 0.1 mm 1 m/s 736 mmHg 75%
    08:00 +23°C° 0.8 mm 1 m/s 736 mmHg 73%
    09:00 +24°C° 0.8 mm 2 m/s 736 mmHg 71%
    10:00 +24°C° 0.8 mm 2 m/s 736 mmHg 69%
    11:00 +25°C° 0.9 mm 2 m/s 736 mmHg 69%
    12:00 +25°C° 0.9 mm 3 m/s 736 mmHg 68%
    13:00 +25°C° 0.9 mm 3 m/s 736 mmHg 68%
    14:00 +25°C° 0.1 mm 3 m/s 736 mmHg 65%
    15:00 +24°C° 0.1 mm 3 m/s 736 mmHg 62%
    16:00 +24°C° 0.1 mm 3 m/s 736 mmHg 59%
    17:00 +23°C° 0 mm 2 m/s 736 mmHg 65%
    18:00 +20°C° 0 mm 2 m/s 736 mmHg 71%
    19:00 +20°C° 0 mm 1 m/s 736 mmHg 77%
    20:00 +19°C° 0 mm 1 m/s 736 mmHg 78%
    21:00 +18°C° 0 mm 1 m/s 736 mmHg 78%
    22:00 +16°C° 0 mm 1 m/s 736 mmHg 79%
    23:00 +16°C° 0 mm 1 m/s 736 mmHg 79%

    11 Iunie, Joi

    Timp Temperatura Precipitaţii Vânt Presiune Umiditate
    00:00 +16°C° 0 mm 1 m/s 736 mmHg 78%
    01:00 +15°C° 0 mm 1 m/s 735 mmHg 77%
    02:00 +15°C° 0 mm 1 m/s 735 mmHg 77%
    03:00 +15°C° 0 mm 1 m/s 735 mmHg 76%
    04:00 +15°C° 0 mm 1 m/s 735 mmHg 75%
    05:00 +18°C° 0 mm 1 m/s 735 mmHg 72%
    06:00 +19°C° 0 mm 1 m/s 735 mmHg 70%
    07:00 +21°C° 0 mm 1 m/s 735 mmHg 67%
    08:00 +22°C° 0.1 mm 1 m/s 735 mmHg 65%
    09:00 +23°C° 0.1 mm 1 m/s 734 mmHg 62%
    10:00 +23°C° 0.1 mm 2 m/s 734 mmHg 60%
    11:00 +24°C° 0.1 mm 2 m/s 734 mmHg 59%
    12:00 +24°C° 0.1 mm 2 m/s 734 mmHg 58%
    13:00 +24°C° 0.1 mm 2 m/s 734 mmHg 58%
    14:00 +24°C° 0.2 mm 2 m/s 733 mmHg 60%
    15:00 +24°C° 0.2 mm 2 m/s 733 mmHg 62%
    16:00 +23°C° 0.2 mm 2 m/s 733 mmHg 64%
    17:00 +21°C° 0.1 mm 2 m/s 733 mmHg 70%
    18:00 +20°C° 0.1 mm 1 m/s 733 mmHg 77%
    19:00 +19°C° 0.1 mm 1 m/s 733 mmHg 83%
    20:00 +18°C° 0 mm 1 m/s 733 mmHg 85%
    21:00 +16°C° 0 mm 1 m/s 734 mmHg 86%
    22:00 +16°C° 0 mm 1 m/s 734 mmHg 87%
    23:00 +15°C° 0 mm 1 m/s 734 mmHg 87%

    12 Iunie, Vineri

    Timp Temperatura Precipitaţii Vânt Presiune Umiditate
    00:00 +15°C° 0 mm 1 m/s 733 mmHg 88%
    01:00 +15°C° 0 mm 1 m/s 733 mmHg 88%
    02:00 +15°C° 0 mm 1 m/s 733 mmHg 88%
    03:00 +14°C° 0 mm 1 m/s 733 mmHg 88%
    04:00 +14°C° 0 mm 1 m/s 733 mmHg 88%
    05:00 +16°C° 0 mm 1 m/s 733 mmHg 83%
    06:00 +19°C° 0 mm 1 m/s 734 mmHg 78%
    07:00 +20°C° 0 mm 1 m/s 734 mmHg 74%
    08:00 +21°C° 0.2 mm 1 m/s 734 mmHg 70%
    09:00 +21°C° 0.2 mm 2 m/s 734 mmHg 67%
    10:00 +23°C° 0.2 mm 2 m/s 734 mmHg 64%
    11:00 +24°C° 0.2 mm 2 m/s 734 mmHg 63%
    12:00 +24°C° 0.2 mm 3 m/s 734 mmHg 63%
    13:00 +24°C° 0.2 mm 3 m/s 734 mmHg 63%
    14:00 +24°C° 0.1 mm 3 m/s 734 mmHg 64%
    15:00 +24°C° 0.1 mm 3 m/s 734 mmHg 66%
    16:00 +22°C° 0.1 mm 3 m/s 734 mmHg 68%
    17:00 +21°C° 0 mm 2 m/s 734 mmHg 74%
    18:00 +19°C° 0 mm 2 m/s 734 mmHg 80%
    19:00 +19°C° 0 mm 1 m/s 734 mmHg 86%
    20:00 +18°C° 0 mm 1 m/s 734 mmHg 87%
    21:00 +18°C° 0 mm 1 m/s 734 mmHg 88%
    22:00 +16°C° 0 mm 1 m/s 735 mmHg 90%
    23:00 +16°C° 0 mm 1 m/s 734 mmHg 90%
    Arată mai mult